{"data":{"norad_id":59920,"intl_designator":"2024-105D","name":"2024-105D","alt_names":[],"object_type":"PAYLOAD","status":"ACTIVE","operator":null,"country":"PRC","launch_date":"2024-05-30","launch_site_code":"JSC","launch_vehicle":null,"mission":null,"orbit_class":"UNKNOWN","rcs_meters":null,"size_class":null,"mass_kg":null,"dimensions":null,"purposes":[],"wikipedia_slug":null,"has_3d_model":false,"image_url":null,"decayed_at":null,"tle_current":{"epoch":"2026-05-25T05:16:11.293824Z","epoch_age_seconds":62993,"freshness":"FRESH","line1":"1 59920U 24105D   26145.21957516  .00005363  00000+0  23555-3 0  9990","line2":"2 59920  97.5832 163.9508 0009996 304.6275  55.4018 15.22321147109767","mean_motion":15.22321147,"eccentricity":0.0009996,"inclination_deg":97.5832,"raan_deg":163.9508,"arg_perigee_deg":304.6275,"mean_anomaly_deg":55.4018,"bstar":0.00023555,"rev_number":10976,"period_min":94.592392862555,"perigee_km":491.96708022335,"apogee_km":505.71553525618,"semimajor_km":6876.9783077398,"source":"CELESTRAK","updated_at":"2026-05-25T13:38:01.748515Z"}}}